Вернуться в каталог

CZ-6A DEB

АктивенPO
NORAD 61824·DEBRIS·🇨🇳 China

Запущен Aug 6, 2024 с Taiyuan Satellite Launch Center

Loading…

Ближайшие Пролёты (ближайшие 24 часа)

TLE

СвежийSource: Space-Track

Эпоха: Sep 13, 2026, 10:39 UTC

1 61824U 24140ACQ 26256.44422503  .00002312  00000-0  75792-3 0  9998
2 61824  88.9100 254.5243 0010766  64.2176 296.0134 14.38108853105024

Отслеживайте CZ-6A DEB в реальном времени с AllMySat

Download on the App Store